This is the latest recevied weather packets stored in our database for station/object DO2MIB-1. If no packets are shown the sender has not sent any weather packets the latest 10 day(s).
| Time | Temp. | Humidity | Pressure | Rain* | Wind** | Luminosity | Snow |
|---|---|---|---|---|---|---|---|
| 1778279872 | 23.89° C | 31% | 0 hPa | - | 0 m/s | - | - |
| 1778279789 | 24.44° C | 32% | 0 hPa | - | 0 m/s | - | - |
| 1778279689 | 22.78° C | 31% | 0 hPa | - | 0 m/s | - | - |
| 1778279491 | 25° C | 32% | 0 hPa | - | 0 m/s | - | - |
| 1778279193 | 25° C | 32% | 0 hPa | - | 0 m/s | - | - |
| 1778279160 | 25° C | 32% | 0 hPa | - | 0 m/s | - | - |
| 1778278994 | 21.67° C | 32% | 0 hPa | - | 0 m/s | - | - |
| 1778278978 | 24.44° C | 32% | 0 hPa | - | 0 m/s | - | - |
| 1778278829 | 25° C | 32% | 0 hPa | - | 0 m/s | - | - |
| 1778278730 | 23.33° C | 32% | 0 hPa | - | 0 m/s | - | - |
| 1778278680 | 25° C | 32% | 0 hPa | - | 0 m/s | - | - |
| 1778278531 | 25° C | 29% | 0 hPa | - | 0 m/s | - | - |
| 1778278316 | 24.44° C | 31% | 0 hPa | - | 0 m/s | - | - |
| 1778278233 | 25° C | 32% | 0 hPa | - | 0 m/s | - | - |
| 1778278200 | 25° C | 32% | 0 hPa | - | 0 m/s | - | - |
| 1778278167 | 24.44° C | 32% | 0 hPa | - | 0 m/s | - | - |
| 1778278051 | 25° C | 32% | 0 hPa | - | 0 m/s | - | - |
| 1778277985 | 24.44° C | 32% | 0 hPa | - | 0 m/s | - | - |
| 1778277935 | 25° C | 32% | 0 hPa | - | 0 m/s | - | - |
| 1778277753 | 25° C | 33% | 0 hPa | - | 0 m/s | - | - |
| 1778277571 | 25° C | 32% | 0 hPa | - | 0 m/s | - | - |
| 1778277273 | 25° C | 30% | 0 hPa | - | 0 m/s | - | - |
| 1778277240 | 24.44° C | 31% | 0 hPa | - | 0 m/s | - | - |
| 1778277207 | 24.44° C | 31% | 0 hPa | - | 0 m/s | - | - |
| 1778277008 | 25° C | 31% | 0 hPa | - | 0 m/s | - | - |
* Rain since midnight (hover to see other rain measurements)
** Current wind speed in m/s (hover to see current wind gust speed)